This demonstration page uses our WeatherBlox Daily Observations layout. Learn more.

Left ArrowRight Arrow

34.74481, -87.66753

Hourly Observations for March 1, 2018

Temp ( °F °C ) Dew Point ( °F °C ) Humidity (%) Winds ( mph kmh ) Pressure ( in mb ) Visibility ( mi km ) Precip ( " mm )
12:20 am 00:20 Cloudy with Light Rain 60 15.6 56 13.3 86 86 SE 10 17 29.80 1009 10 16 0.00 0.03
12:34 am 00:34 Cloudy 60 15.6 56 13.3 86 86 ESE 14 22 29.80 1009 10 16 0.00 0.03
12:53 am 00:53 Cloudy 60 15.6 56 13.3 86 86 VRB 6 9 29.80 1009 10 16 0.00 0.03
1:32 am 01:32 Cloudy 60 15.6 56 13.3 86 86 ESE 10 17 29.80 1009 10 16 0.00 0.00
1:53 am 01:53 Cloudy with Light Rain 60 15.6 57 13.9 90 90 undefined N/A 29.81 1010 10 16 0.00 0.03
2:29 am 02:29 Cloudy 59 15 56 13.3 90 90 N 6 9 29.80 1009 10 16 0.03 0.76
2:50 am 02:50 Cloudy with Light Rain 59 15 55 13 88 88 NNW 8 13 29.80 1009 5 8 0.06 1.52
2:53 am 02:53 Cloudy with Heavy Rain 59 15 56 13.3 90 90 N 8 13 29.79 1009 5 8 0.07 1.78
3:16 am 03:16 Cloudy with Heavy Rain 59 15 56 13.3 90 90 N 6 9 29.80 1009 5 8 0.02 0.51
3:43 am 03:43 Cloudy with Light Rain 59 15 56 13.3 90 90 Calm 29.80 1009 9 14 0.04 1.02
3:53 am 03:53 Cloudy with Light Rain 59 15 56 13.3 90 90 SW 9 15 29.80 1009 10 16 0.04 1.02
4:00 am 04:00 Cloudy with Light Rain 59 15 56 13.3 90 90 NNE 9 15 29.80 1009 8 13 0.00 0.03
4:19 am 04:19 Cloudy with Light Rain 59 15 57 13.9 93 93 Calm 29.80 1009 6 10 0.03 0.76
4:53 am 04:53 Cloudy 59 15 56 13.3 90 90 W 6 9 29.81 1010 9 14 0.04 1.02
5:53 am 05:53 Cloudy with Light Rain 58 14.4 56 13.3 93 93 WNW 7 11 29.82 1010 8 13 0.03 0.76
6:24 am 06:24 Cloudy with Light Rain 59 15 56 13.3 90 90 NNW 6 9 29.83 1010 8 13 0.03 0.76
6:53 am 06:53 Cloudy with Light Rain 59 15 56 13.3 90 90 WNW 9 15 29.84 1011 6 10 0.06 1.52
7:51 am 07:51 Cloudy with Light Rain 59 15 55 13 88 88 WNW 8 13 29.85 1011 6 10 0.09 2.29
7:53 am 07:53 Cloudy with Light Rain 59 15 56 13.3 90 90 WNW 7 11 29.88 1012 6 10 0.09 2.29
8:48 am 08:48 Cloudy with Light Rain 59 15 55 13 88 88 WNW 12 19 29.88 1012 10 16 0.01 0.25
8:53 am 08:53 Cloudy with Light Rain 59 15 55 12.8 87 87 WNW 13 20 29.91 1013 9 14 0.01 0.25
9:53 am 09:53 Cloudy with Rain 58 14.4 55 12.8 90 90 NW 8 13 29.92 1013 7 11 0.07 1.78
10:53 am 10:53 Cloudy with Light Rain 58 14.4 54 12.2 87 87 W 9 15 29.91 1013 10 16 0.06 1.52
11:53 am 11:53 Mostly Cloudy 58 14.4 54 12.2 87 87 S 8 13 29.87 1012 10 16 0.02 0.51
12:53 pm 12:53 Mostly Cloudy 59 15 55 12.8 87 87 WSW 10 17 29.90 1013 10 16 0.00 0.03
1:53 pm 13:53 Mostly Sunny 60 15.6 55 12.8 84 84 W 10 17 29.92 1013 10 16 0.00 0.00
2:43 pm 14:43 Cloudy 61 16.1 53 11.7 75 75 W 15 24 29.94 1014 10 16 0.00 0.00
2:53 pm 14:53 Mostly Cloudy 63 17.2 55 12.8 76 76 W 16 26 29.94 1014 10 16 0.00 0.00
3:07 pm 15:07 Mostly Cloudy 63 17.2 55 12.8 76 76 WNW 14 22 29.91 1013 10 16 0.00 0.00
3:36 pm 15:36 Cloudy with Heavy Rain 62 16.7 55 12.8 78 78 WNW 13 20 29.94 1014 3 4 0.05 1.27
3:44 pm 15:44 Cloudy with Light Rain 61 16.1 55 12.8 81 81 NW 12 19 29.94 1014 4 6 0.05 1.27
3:53 pm 15:53 Mostly Cloudy 61 16.1 55 12.8 81 81 NW 10 17 29.97 1015 10 16 0.05 1.27
4:53 pm 16:53 Partly Cloudy 63 17.2 53 11.7 70 70 WNW 12 19 29.99 1016 10 16 0.00 0.00
5:53 pm 17:53 Clear 61 16.1 49 9.4 65 65 NNW 8 13 30.04 1017 10 16 0.00 0.00
6:53 pm 18:53 Clear 59 15 45 7.2 60 60 NNW 16 26 30.09 1019 10 16 0.00 0.00
7:53 pm 19:53 Clear 56 13.3 44 6.7 65 65 NNW 9 15 30.13 1020 10 16 0.00 0.00
8:53 pm 20:53 Clear 54 12.2 44 6.7 69 69 N 12 19 30.16 1021 10 16 0.00 0.00
9:53 pm 21:53 Clear 52 11.1 41 5 66 66 N 10 17 30.19 1022 10 16 0.00 0.00
10:53 pm 22:53 Clear 51 10.6 41 5 69 69 N 6 9 30.22 1023 10 16 0.00 0.00
11:53 pm 23:53 Mostly Clear 50 10 40 4.4 68 68 N 9 15 30.24 1024 10 16 0.00 0.00

Powered by AerisWeather